This is the latest recevied weather packets stored in our database for station/object CW79215. If no packets are shown the sender has not sent any weather packets the latest 1 day(s).
| Time | Temp. | Humidity | Pressure | Rain* | Wind** | Luminosity | Snow |
|---|---|---|---|---|---|---|---|
| 1777765935 | 13.89° C | 68% | 1021 hPa | - | - | - | - |
| 1777765035 | 13.89° C | 67% | 1021.1 hPa | - | - | - | - |
| 1777764134 | 13.89° C | 67% | 1021.2 hPa | - | - | - | - |
| 1777763234 | 13.89° C | 67% | 1021.2 hPa | - | - | - | - |
| 1777762334 | 14.44° C | 66% | 1021.3 hPa | - | - | - | - |
| 1777761434 | 14.44° C | 66% | 1021.4 hPa | - | - | - | - |
| 1777760534 | 15° C | 66% | 1021.3 hPa | - | - | - | - |
| 1777759634 | 15° C | 65% | 1021.2 hPa | - | - | - | - |
| 1777758734 | 15° C | 64% | 1021 hPa | - | - | - | - |
| 1777757834 | 15.56° C | 63% | 1021 hPa | - | - | - | - |
| 1777756934 | 16.11° C | 60% | 1021 hPa | - | - | - | - |
| 1777756034 | 15.56° C | 64% | 1021 hPa | - | - | - | - |
| 1777755134 | 16.11° C | 63% | 1021 hPa | - | - | - | - |
| 1777754233 | 16.11° C | 62% | 1020.9 hPa | - | - | - | - |
| 1777753333 | 16.11° C | 62% | 1020.8 hPa | - | - | - | - |
| 1777752433 | 16.67° C | 61% | 1020.9 hPa | - | - | - | - |
| 1777751533 | 17.22° C | 59% | 1020.7 hPa | - | - | - | - |
| 1777750633 | 17.22° C | 58% | 1020.8 hPa | - | - | - | - |
| 1777749733 | 17.78° C | 58% | 1020.8 hPa | - | - | - | - |
| 1777748833 | 18.33° C | 55% | 1020.6 hPa | - | - | - | - |
| 1777747933 | 18.33° C | 54% | 1020.5 hPa | - | - | - | - |
| 1777747033 | 18.89° C | 52% | 1020.3 hPa | - | - | - | - |
| 1777746133 | 19.44° C | 51% | 1020.3 hPa | - | - | - | - |
| 1777745233 | 20.56° C | 48% | 1020.2 hPa | - | - | - | - |
| 1777744333 | 20.56° C | 48% | 1020 hPa | - | - | - | - |
* Rain since midnight (hover to see other rain measurements)
** Current wind speed in m/s (hover to see current wind gust speed)